H-2A R/B (38341 NORAD) Tracking and Keplerian Element Data
This shows tracking and keplerian element data for the satellite.
Feedback or suggestion? Click here.
Element | Value |
Catalog | 38341 |
Name | H-2A R/B |
Epoch Orbit | 46959 |
Epoch Day | 20.74963842 |
Epoch Year | 2021 |
RAAN | 196.1735 |
Inclination | 98.518 |
Eccentricity | 0.0054352 |
Argument of Perigee | 253.5977 |
Mean Anonmoly | 105.9257 |
Mean Motion | 14.84151289 |
Decay Rate | 1.99E-06 |
L1 | 1 38341U 12025E 21020.74963842 .00000199 00000-0 30942-4 0 9998 |
L2 | 2 38341 98.5180 196.1735 0054352 253.5977 105.9257 14.84151289469596 |
Live tracking and technical data element details for H-2A R/B (NORAD 38341). H-2A R/B can be tracked NOW for your location showing map with azimuth and elevation plus other details from your city location.
Track the satellite on the map from your city or location and see movement details for azimuth, elevation, latitude, longitude, range, height, and movement on the map or in text.
IsCatalogInMostPopularTable: catalog: 38341, numindb: 530
Update: records affected: 1
GetName: 38341 H-2A R/B
Hit Count: updated at: Sat, 23 Jan 2021 04:29:27 GMT